DW1520 Weather Reports


time (UTC)temp
C
wind
direction
speed
KPH
gust
KPH
rain 1hr
cm
rain 24hr
cm
rain mn
cm
humidity
%
barometer
mb
20260510052006 8 289 0.0 3.2 0.00 0.00 0.00 50 1013.3
20260510051506 8 289 0.0 1.6 0.00 0.00 0.00 49 1013.3
20260510051006 8 289 0.0 3.2 0.00 0.00 0.00 49 1013.2
20260510050506 8 289 1.6 4.8 0.00 0.00 0.00 49 1013.1
20260510045506 8 271 0.0 1.6 0.00 0.00 0.00 49 1012.9
20260510045006 8 271 0.0 4.8 0.00 0.00 0.00 48 1012.9
20260510044506 8 271 0.0 4.8 0.00 0.00 0.00 48 1012.8
20260510044007 8 330 0.0 3.2 0.00 0.00 0.00 48 1012.8
20260510043506 8 330 0.0 3.2 0.00 0.00 0.00 47 1012.7
20260510043011 8 330 0.0 3.2 0.00 0.00 0.00 47 1012.7
20260510042506 8 330 0.0 1.6 0.00 0.00 0.00 47 1012.6
20260510042006 8 330 0.0 4.8 0.00 0.00 0.00 47 1012.6
20260510041507 8 330 0.0 0.0 0.00 0.00 0.00 46 1012.5
20260510041006 9 330 0.0 0.0 0.00 0.00 0.00 46 1012.5
20260510040506 9 330 0.0 0.0 0.00 0.00 0.00 46 1012.4
20260510040006 9 330 0.0 0.0 0.00 0.00 0.00 45 1012.3
20260510035506 9 330 0.0 1.6 0.00 0.00 0.00 45 1012.3
20260510035006 9 330 0.0 1.6 0.00 0.00 0.00 46 1012.2
20260510034506 9 330 0.0 0.0 0.00 0.00 0.00 45 1012.2
20260510034006 9 330 0.0 0.0 0.00 0.00 0.00 45 1012.2
20260510033506 9 330 0.0 3.2 0.00 0.00 0.00 44 1012.1
20260510033007 9 330 0.0 4.8 0.00 0.00 0.00 45 1012.1
20260510032506 9 330 0.0 4.8 0.00 0.00 0.00 45 1012.0
20260510031506 8 331 1.6 4.8 0.00 0.00 0.00 45 1011.9
20260510030506 8 330 0.0 0.0 0.00 0.00 0.00 47 1011.7
20260510025506 8 330 0.0 0.0 0.00 0.00 0.00 48 1011.5
20260510025006 8 331 0.0 0.0 0.00 0.00 0.00 50 1011.4
20260510024506 8 330 0.0 0.0 0.00 0.00 0.00 47 1011.4
20260510024007 9 330 0.0 0.0 0.00 0.00 0.00 46 1011.3
20260510023506 9 330 0.0 0.0 0.00 0.00 0.00 46 1011.2
20260510023007 9 331 0.0 0.0 0.00 0.00 0.00 44 1011.0
20260510022506 9 331 0.0 0.0 0.00 0.00 0.00 44 1011.0
20260510022006 10 331 0.0 0.0 0.00 0.00 0.00 44 1010.9
20260510021506 10 330 0.0 0.0 0.00 0.00 0.00 43 1010.8
20260510021007 10 330 0.0 0.0 0.00 0.00 0.00 42 1010.7
20260510020506 10 330 0.0 0.0 0.00 0.00 0.00 42 1010.6
20260510020007 10 331 0.0 0.0 0.00 0.00 0.00 41 1010.5
20260510015506 10 330 0.0 0.0 0.00 0.00 0.00 41 1010.4
20260510015006 11 330 0.0 0.0 0.00 0.00 0.00 40 1010.3
20260510014007 11 331 0.0 0.0 0.00 0.00 0.00 39 1010.1
20260510012006 12 331 0.0 3.2 0.00 0.00 0.00 36 1009.6
20260510011506 12 331 1.6 3.2 0.00 0.00 0.00 35 1009.5
20260510011006 12 331 0.0 3.2 0.00 0.00 0.00 36 1009.4
20260510010506 12 331 1.6 3.2 0.00 0.00 0.00 35 1009.3
20260510010006 12 331 0.0 4.8 0.00 0.00 0.00 34 1009.2
20260510004506 13 355 1.6 4.8 0.00 0.00 0.00 34 1009.0
20260510004006 13 357 1.6 4.8 0.00 0.00 0.00 32 1008.9
20260510003008 13 227 4.8 11.3 0.00 0.00 0.00 32 1008.8
20260510002507 13 288 3.2 11.3 0.00 0.00 0.00 31 1008.7
20260510002006 13 296 3.2 14.5 0.00 0.00 0.00 31 1008.7
20260510001506 14 298 4.8 11.3 0.00 0.00 0.00 31 1008.7
20260510000506 14 304 3.2 9.7 0.00 0.00 0.00 32 1008.4
20260509235506 14 304 4.8 11.3 0.00 0.00 0.00 32 1008.4
20260509235006 14 297 4.8 11.3 0.00 0.00 0.00 32 1008.3
20260509234506 14 282 3.2 4.8 0.00 0.00 0.00 32 1008.2
20260509233506 14 322 3.2 4.8 0.00 0.00 0.00 31 1008.2
20260509233007 15 285 3.2 4.8 0.00 0.00 0.00 31 1008.1
20260509232505 15 303 3.2 8.0 0.00 0.00 0.00 31 1008.0
20260509232006 15 287 3.2 8.0 0.00 0.00 0.00 32 1008.0
20260509231506 15 290 4.8 9.7 0.00 0.00 0.00 30 1007.9
20260509230006 15 300 4.8 9.7 0.00 0.00 0.00 30 1007.7
20260509225506 15 312 1.6 4.8 0.00 0.00 0.00 32 1007.6
20260509224506 15 282 4.8 8.0 0.00 0.00 0.00 29 1007.4
20260509224006 15 294 3.2 8.0 0.00 0.00 0.00 30 1007.4
20260509223006 15 302 3.2 12.9 0.00 0.00 0.00 31 1007.4
20260509222505 15 281 9.7 19.3 0.00 0.00 0.00 32 1007.3
20260509222006 15 297 6.4 14.5 0.00 0.00 0.00 30 1007.2
20260509221006 15 283 4.8 12.9 0.00 0.00 0.00 31 1007.1
20260509215506 15 305 4.8 12.9 0.00 0.00 0.00 32 1007.0
20260509215007 15 295 4.8 12.9 0.00 0.00 0.00 32 1006.9
20260509214506 15 298 4.8 20.9 0.00 0.00 0.00 33 1006.9
20260509214006 16 304 4.8 14.5 0.00 0.00 0.00 32 1006.8
20260509213006 16 291 4.8 12.9 0.00 0.00 0.00 33 1006.7
20260509212506 15 321 3.2 9.7 0.00 0.00 0.00 32 1006.8
20260509211506 15 287 8.0 16.1 0.00 0.00 0.00 31 1006.6
20260509210006 16 291 4.8 11.3 0.00 0.00 0.00 31 1006.4
20260509204006 16 303 4.8 12.9 0.00 0.00 0.00 32 1006.4
20260509203007 16 283 4.8 19.3 0.00 0.00 0.00 35 1006.3
20260509202506 16 289 4.8 14.5 0.00 0.00 0.00 35 1006.2
20260509201506 16 298 6.4 22.5 0.00 0.00 0.00 33 1006.2
20260509201006 16 298 4.8 19.3 0.00 0.00 0.00 34 1006.0
20260509200506 16 298 4.8 14.5 0.00 0.00 0.00 36 1005.8
20260509200005 16 300 3.2 19.3 0.00 0.00 0.00 35 1005.9
20260509195505 16 302 4.8 9.7 0.00 0.00 0.00 35 1005.9
20260509195006 16 308 8.0 19.3 0.00 0.00 0.00 33 1005.9
20260509194506 16 301 4.8 12.9 0.00 0.00 0.00 34 1005.8
20260509194006 16 302 6.4 12.9 0.00 0.00 0.00 33 1005.8
20260509192506 16 301 6.4 14.5 0.00 0.00 0.00 33 1005.6
20260509191006 16 298 4.8 16.1 0.00 0.00 0.00 37 1005.6
20260509190506 16 305 6.4 16.1 0.00 0.00 0.00 34 1005.5
20260509190006 15 306 6.4 19.3 0.00 0.00 0.00 36 1005.5
20260509185505 16 297 6.4 14.5 0.00 0.00 0.00 34 1005.4
20260509185006 16 287 6.4 14.5 0.00 0.00 0.00 37 1005.4
20260509184506 16 282 9.7 19.3 0.00 0.00 0.00 36 1005.4
20260509184006 16 286 4.8 16.1 0.00 0.00 0.00 40 1005.3
20260509183506 16 254 8.0 16.1 0.00 0.00 0.00 36 1005.2
20260509183006 16 252 4.8 16.1 0.00 0.00 0.00 37 1005.2
20260509182506 16 294 6.4 19.3 0.00 0.00 0.00 38 1005.1
20260509182006 16 309 3.2 11.3 0.00 0.00 0.00 40 1005.0
20260509181505 16 294 4.8 16.1 0.00 0.00 0.00 40 1005.0
20260509181006 15 301 6.4 20.9 0.00 0.00 0.00 41 1005.0
20260509180506 15 303 4.8 14.5 0.00 0.00 0.00 41 1005.0
20260509180005 15 290 8.0 19.3 0.00 0.00 0.00 41 1004.9
20260509175506 15 305 4.8 12.9 0.00 0.00 0.00 41 1004.9
20260509175006 15 300 4.8 14.5 0.00 0.00 0.00 42 1004.9
20260509174506 15 297 4.8 12.9 0.00 0.00 0.00 42 1004.8
20260509173506 15 287 4.8 16.1 0.00 0.00 0.00 43 1004.8
20260509173006 15 277 9.7 25.7 0.00 0.00 0.00 43 1004.8
20260509172506 15 300 6.4 14.5 0.00 0.00 0.00 44 1004.8
20260509172006 15 285 3.2 16.1 0.00 0.00 0.00 45 1004.6
20260509171006 15 302 4.8 12.9 0.00 0.00 0.00 48 1004.7
20260509170506 14 266 8.0 16.1 0.00 0.00 0.00 46 1004.7
20260509170006 14 284 8.0 14.5 0.00 0.00 0.00 49 1004.7
20260509165506 14 302 3.2 16.1 0.00 0.00 0.00 49 1004.7
20260509165006 14 277 4.8 12.9 0.00 0.00 0.00 50 1004.7
20260509164506 14 312 6.4 19.3 0.00 0.00 0.00 52 1004.6
20260509164005 13 296 4.8 12.9 0.00 0.00 0.00 53 1004.7
20260509163506 14 287 3.2 11.3 0.00 0.00 0.00 52 1004.5
20260509162505 13 262 8.0 19.3 0.00 0.00 0.00 52 1004.6
20260509162006 14 269 4.8 16.1 0.00 0.00 0.00 56 1004.5
20260509161506 13 282 3.2 12.9 0.00 0.00 0.00 57 1004.4
20260509161006 13 279 4.8 14.5 0.00 0.00 0.00 56 1004.4
20260509160505 13 290 8.0 16.1 0.00 0.00 0.00 55 1004.3
20260509155506 13 297 3.2 12.9 0.00 0.00 0.00 59 1004.2
20260509154006 13 297 3.2 16.1 0.00 0.00 0.00 60 1004.1
20260509153506 13 285 4.8 16.1 0.00 0.00 0.00 61 1004.0
20260509153006 13 295 6.4 14.5 0.00 0.00 0.00 62 1004.0
20260509152006 13 296 6.4 12.9 0.00 0.00 0.00 63 1003.7
20260509151506 12 296 3.2 14.5 0.00 0.00 0.00 63 1003.7
20260509151006 12 303 6.4 16.1 0.00 0.00 0.00 62 1003.6
20260509150006 12 310 4.8 14.5 0.00 0.00 0.00 68 1003.4
20260509145506 12 310 4.8 12.9 0.00 0.00 0.00 67 1003.3
20260509144006 13 293 6.4 12.9 0.00 0.00 0.00 68 1002.8
20260509143506 12 298 4.8 16.1 0.00 0.00 0.00 69 1002.7
20260509143006 12 277 3.2 16.1 0.00 0.00 0.00 69 1002.7
20260509142506 12 300 3.2 16.1 0.00 0.00 0.00 70 1002.7
20260509141505 12 302 8.0 14.5 0.00 0.00 0.00 67 1002.6
20260509141006 12 280 6.4 16.1 0.00 0.00 0.00 68 1002.5
20260509140505 12 278 4.8 19.3 0.00 0.00 0.00 67 1002.6
20260509140006 12 286 8.0 22.5 0.00 0.00 0.00 66 1002.5
20260509135506 12 286 3.2 11.3 0.00 0.00 0.00 68 1002.3
20260509135006 13 294 8.0 16.1 0.00 0.00 0.00 67 1002.1
20260509134506 12 289 4.8 19.3 0.00 0.00 0.00 68 1002.1
20260509134006 12 265 6.4 19.3 0.00 0.00 0.00 66 1002.1
20260509133506 13 299 4.8 12.9 0.00 0.00 0.00 67 1002.1
20260509133006 12 277 8.0 19.3 0.00 0.00 0.00 66 1002.1
20260509131506 12 310 4.8 9.7 0.00 0.00 0.00 63 1001.9
20260509131006 12 282 4.8 11.3 0.00 0.00 0.00 62 1001.8
20260509130506 11 288 1.6 4.8 0.00 0.00 0.00 62 1001.8
20260509130005 11 289 1.6 4.8 0.00 0.00 0.00 64 1001.7
20260509125006 10 289 1.6 4.8 0.00 0.00 0.00 62 1001.8
20260509124005 10 289 0.0 1.6 0.00 0.00 0.00 63 1001.5
20260509123506 10 289 0.0 1.6 0.00 0.00 0.00 63 1001.5
20260509123006 10 289 0.0 1.6 0.00 0.00 0.00 63 1001.6
20260509122006 10 289 0.0 1.6 0.00 0.00 0.00 59 1001.6
20260509121506 10 289 1.6 1.6 0.00 0.00 0.00 60 1001.6
20260509121005 10 289 0.0 1.6 0.00 0.00 0.00 59 1001.6
20260509120506 10 289 0.0 3.2 0.00 0.00 0.00 60 1001.6
20260509120006 10 289 1.6 1.6 0.00 0.00 0.00 58 1001.5
20260509115505 10 289 0.0 0.0 0.00 0.00 0.00 57 1001.3
20260509115006 10 289 0.0 3.2 0.00 0.00 0.00 57 1001.0
20260509114506 10 289 0.0 3.2 0.00 0.00 0.00 57 1000.8
20260509114006 10 289 0.0 3.2 0.00 0.00 0.00 56 1001.1
20260509113506 10 289 1.6 4.8 0.00 0.00 0.00 56 1001.3
20260509113006 10 289 1.6 4.8 0.00 0.00 0.00 56 1001.2
20260509112505 10 289 1.6 4.8 0.00 0.00 0.00 56 1001.2
20260509112006 10 289 1.6 4.8 0.00 0.00 0.00 55 1001.0
20260509111506 10 289 0.0 1.6 0.00 0.00 0.00 55 1001.1
20260509111006 10 289 0.0 1.6 0.00 0.00 0.00 55 1001.0
20260509110006 10 289 0.0 1.6 0.00 0.00 0.00 56 1000.9
20260509105006 9 289 1.6 4.8 0.00 0.00 0.00 56 1000.6
20260509104505 9 289 1.6 3.2 0.00 0.00 0.00 58 1000.7
20260509104006 9 289 1.6 4.8 0.00 0.00 0.00 58 1000.8
20260509103006 8 306 1.6 4.8 0.00 0.00 0.00 61 1000.6
20260509102506 8 128 1.6 4.8 0.00 0.00 0.00 64 1000.3
20260509102006 8 128 3.2 4.8 0.00 0.00 0.00 65 999.9
20260509101506 7 128 3.2 4.8 0.00 0.00 0.00 64 999.9
20260509100506 7 311 0.0 3.2 0.00 0.00 0.00 67 999.8
20260509100006 7 311 0.0 1.6 0.00 0.00 0.00 70 999.7
20260509095506 7 311 0.0 1.6 0.00 0.00 0.00 68 999.8
20260509095006 7 311 0.0 0.0 0.00 0.00 0.00 69 999.9
20260509094506 7 311 0.0 0.0 0.00 0.00 0.00 67 999.8
20260509093506 7 311 0.0 0.0 0.00 0.00 0.00 68 1000.0
20260509093006 7 311 0.0 0.0 0.00 0.00 0.00 64 1000.0
20260509092506 7 311 0.0 0.0 0.00 0.00 0.00 64 1000.1
20260509092006 7 311 0.0 0.0 0.00 0.00 0.00 64 1000.1
20260509091505 7 311 0.0 0.0 0.00 0.00 0.00 63 1000.2
20260509091006 7 311 0.0 0.0 0.00 0.00 0.00 64 1000.0
20260509090506 7 311 0.0 0.0 0.00 0.00 0.00 62 1000.1
20260509090006 7 311 0.0 0.0 0.00 0.00 0.00 60 1000.2
20260509085505 7 311 0.0 0.0 0.00 0.00 0.00 59 1000.2
20260509084506 8 311 0.0 0.0 0.00 0.00 0.00 60 1000.2
20260509084006 8 311 0.0 0.0 0.00 0.00 0.00 58 1000.1
20260509083506 8 311 0.0 0.0 0.00 0.00 0.00 58 1000.0
20260509083012 8 311 0.0 0.0 0.00 0.00 0.00 58 1000.1
20260509082506 8 311 0.0 0.0 0.00 0.00 0.00 57 999.8
20260509082005 8 311 0.0 0.0 0.00 0.00 0.00 56 999.8
20260509081505 8 311 0.0 0.0 0.00 0.00 0.00 55 999.8
20260509081006 8 311 0.0 0.0 0.00 0.00 0.00 54 1000.0
20260509080506 8 311 0.0 0.0 0.00 0.00 0.00 53 1000.0
20260509080006 8 311 0.0 0.0 0.00 0.00 0.00 54 1000.0
20260509075505 9 311 0.0 0.0 0.00 0.00 0.00 53 1000.1
20260509075005 9 311 0.0 0.0 0.00 0.00 0.00 53 1000.1
20260509074507 9 311 0.0 0.0 0.00 0.00 0.00 55 1000.1
20260509073506 10 311 0.0 0.0 0.00 0.00 0.00 50 1000.2
20260509073006 10 311 0.0 0.0 0.00 0.00 0.00 50 1000.3
20260509072006 10 311 0.0 0.0 0.00 0.00 0.00 48 1000.4
20260509071506 11 311 0.0 0.0 0.00 0.00 0.00 47 1000.4
20260509071006 11 311 0.0 0.0 0.00 0.00 0.00 46 1000.5
20260509070005 11 311 0.0 0.0 0.00 0.00 0.00 45 1000.6
20260509065506 11 311 0.0 0.0 0.00 0.00 0.00 45 1000.7
20260509065006 11 311 0.0 0.0 0.00 0.00 0.00 45 1000.8
20260509064505 12 311 0.0 0.0 0.00 0.00 0.00 44 1000.7
20260509064006 12 311 0.0 0.0 0.00 0.00 0.00 43 1000.9
20260509062506 12 311 0.0 1.6 0.00 0.00 0.00 41 1000.9
20260509062006 12 311 0.0 0.0 0.00 0.00 0.00 42 1000.8
20260509061505 13 311 0.0 1.6 0.00 0.00 0.00 41 1000.8
20260509060506 13 311 1.6 4.8 0.00 0.00 0.00 40 1001.1
20260509060006 13 311 1.6 3.2 0.00 0.00 0.00 40 1001.1
20260509055505 13 311 1.6 4.8 0.00 0.00 0.00 40 1001.0
20260509055006 13 311 3.2 4.8 0.00 0.00 0.00 40 1001.0
20260509054006 13 292 3.2 4.8 0.00 0.00 0.00 39 1001.0
20260509053505 13 287 3.2 4.8 0.00 0.00 0.00 39 1001.0
20260509053005 14 306 3.2 4.8 0.00 0.00 0.00 39 1001.0
20260509052505 14 317 4.8 12.9 0.00 0.00 0.00 38 1001.0